• In Hungary
  • List of Countries
  • For 7 days
  • Water Temperature
  • Satellite Maps
  • Weather Map
  • News
  • Weather Widgets
  • user-avatar
    Login

    Hourly Weather Chukalivka

    Today, 21 May, Monday

    Time Temperature Precipitation Wind Pressure Humidity
    00:00 +13°C° 0 mm 1 mps 742 mmHg 95%
    01:00 +13°C° 0 mm 1 mps 741 mmHg 96%
    02:00 +12°C° 0 mm 1 mps 742 mmHg 97%
    03:00 +11°C° 0 mm 0 mps 742 mmHg 98%
    04:00 +11°C° 0 mm 1 mps 742 mmHg 98%
    05:00 +11°C° 0 mm 1 mps 742 mmHg 99%
    06:00 +11°C° 0 mm 1 mps 742 mmHg 99%
    07:00 +11°C° 0 mm 0 mps 742 mmHg 97%
    08:00 +14°C° 0 mm 1 mps 742 mmHg 94%
    09:00 +15°C° 0 mm 1 mps 742 mmHg 92%
    10:00 +16°C° 0 mm 2 mps 743 mmHg 89%
    11:00 +17°C° 0 mm 2 mps 742 mmHg 84%
    12:00 +17°C° 0.2 mm 3 mps 742 mmHg 81%
    13:00 +17°C° 0.1 mm 3 mps 742 mmHg 78%
    14:00 +18°C° 0 mm 3 mps 742 mmHg 77%
    15:00 +18°C° 0 mm 3 mps 741 mmHg 75%
    16:00 +18°C° 0 mm 3 mps 741 mmHg 74%
    17:00 +18°C° 0 mm 3 mps 741 mmHg 74%
    18:00 +18°C° 0 mm 3 mps 740 mmHg 78%
    19:00 +17°C° 0 mm 3 mps 740 mmHg 85%
    20:00 +16°C° 0 mm 2 mps 740 mmHg 92%
    21:00 +15°C° 0 mm 2 mps 740 mmHg 95%
    22:00 +14°C° 0 mm 2 mps 740 mmHg 96%
    23:00 +13°C° 0 mm 2 mps 740 mmHg 98%

    Tomorrow, 22 May, Tuesday

    Time Temperature Precipitation Wind Pressure Humidity
    00:00 +13°C° 0 mm 2 mps 740 mmHg 100%
    01:00 +12°C° 0 mm 2 mps 739 mmHg 100%
    02:00 +12°C° 0 mm 1 mps 739 mmHg 100%
    03:00 +12°C° 0 mm 1 mps 739 mmHg 100%
    04:00 +11°C° 0 mm 1 mps 739 mmHg 100%
    05:00 +11°C° 0 mm 1 mps 739 mmHg 100%
    06:00 +12°C° 0 mm 1 mps 738 mmHg 100%
    07:00 +13°C° 0 mm 2 mps 739 mmHg 98%
    08:00 +14°C° 0 mm 3 mps 739 mmHg 95%
    09:00 +15°C° 0 mm 4 mps 739 mmHg 93%
    10:00 +17°C° 0 mm 4 mps 739 mmHg 94%
    11:00 +19°C° 0 mm 4 mps 739 mmHg 90%
    12:00 +20°C° 0 mm 6 mps 739 mmHg 92%
    13:00 +17°C° 2.3 mm 3 mps 740 mmHg 93%
    14:00 +17°C° 0.5 mm 6 mps 739 mmHg 95%
    15:00 +19°C° 0.1 mm 5 mps 738 mmHg 88%
    16:00 +20°C° 0.2 mm 4 mps 738 mmHg 94%
    17:00 +21°C° 0.1 mm 6 mps 738 mmHg 89%
    18:00 +20°C° 0 mm 5 mps 737 mmHg 94%
    19:00 +20°C° 0 mm 6 mps 737 mmHg 92%
    20:00 +19°C° 0 mm 5 mps 737 mmHg 94%
    21:00 +18°C° 0 mm 4 mps 738 mmHg 95%
    22:00 +18°C° 0 mm 4 mps 738 mmHg 97%
    23:00 +17°C° 0 mm 3 mps 738 mmHg 98%

    Day after tomorrow, 23 May, Wednesday

    Time Temperature Precipitation Wind Pressure Humidity
    00:00 +17°C° 0 mm 3 mps 738 mmHg 99%
    01:00 +15°C° 0 mm 0 mps 738 mmHg 100%
    02:00 +16°C° 0 mm 1 mps 738 mmHg 100%
    03:00 +15°C° 0 mm 0 mps 738 mmHg 100%
    04:00 +16°C° 0 mm 1 mps 738 mmHg 100%
    05:00 +15°C° 0 mm 1 mps 738 mmHg 100%
    06:00 +16°C° 0 mm 1 mps 738 mmHg 100%
    07:00 +18°C° 0 mm 1 mps 739 mmHg 98%
    08:00 +19°C° 0 mm 2 mps 739 mmHg 93%
    09:00 +21°C° 0 mm 1 mps 740 mmHg 89%
    10:00 +22°C° 0 mm 1 mps 740 mmHg 87%
    11:00 +22°C° 0 mm 1 mps 740 mmHg 86%
    12:00 +23°C° 0 mm 1 mps 740 mmHg 85%
    13:00 +23°C° 0.1 mm 2 mps 740 mmHg 87%
    14:00 +23°C° 0 mm 2 mps 739 mmHg 85%
    15:00 +24°C° 0 mm 1 mps 739 mmHg 81%
    16:00 +23°C° 0 mm 4 mps 739 mmHg 86%
    17:00 +21°C° 0 mm 5 mps 739 mmHg 88%
    18:00 +21°C° 0 mm 2 mps 739 mmHg 91%
    19:00 +22°C° 0 mm 1 mps 739 mmHg 93%
    20:00 +21°C° 0 mm 1 mps 739 mmHg 95%
    21:00 +21°C° 0 mm 1 mps 739 mmHg 94%
    22:00 +20°C° 0 mm 1 mps 739 mmHg 95%
    23:00 +20°C° 0 mm 1 mps 739 mmHg 97%

    24 May, Thursday

    Time Temperature Precipitation Wind Pressure Humidity
    00:00 +19°C° 0 mm 1 mps 739 mmHg 100%
    01:00 +19°C° 0 mm 1 mps 739 mmHg 100%
    02:00 +18°C° 0 mm 1 mps 739 mmHg 100%
    03:00 +18°C° 0 mm 1 mps 739 mmHg 100%
    04:00 +17°C° 0 mm 2 mps 739 mmHg 100%
    05:00 +18°C° 0 mm 1 mps 739 mmHg 100%
    06:00 +18°C° 0 mm 1 mps 739 mmHg 100%
    07:00 +18°C° 0 mm 1 mps 739 mmHg 100%
    08:00 +17°C° 0 mm 2 mps 739 mmHg 100%
    09:00 +17°C° 0 mm 2 mps 740 mmHg 100%
    10:00 +18°C° 0 mm 2 mps 740 mmHg 98%
    11:00 +18°C° 0 mm 2 mps 740 mmHg 97%
    12:00 +19°C° 0 mm 1 mps 740 mmHg 97%
    13:00 +20°C° 0 mm 1 mps 740 mmHg 97%
    14:00 +21°C° 0 mm 1 mps 739 mmHg 95%

    25 May, Friday

    Time Temperature Precipitation Wind Pressure Humidity

    26 May, Saturday

    Time Temperature Precipitation Wind Pressure Humidity
    Show more